Tracking 19226 objects as of 23-Jul-2018
HD Live streaming from Space Station
objects crossing your sky now

FENGYUN 1C DEB

Track FENGYUN 1C DEB now!
10-day predictions


NORAD ID: 30916
Int'l Code: 1999-025AZE
Perigee: 840.8 km
Apogee: 955.0 km
Inclination: 99.3 °
Period: 102.8 minutes
Semi major axis: 7268 km
RCS: 0.0136 m2 (small)
Launch date: May 10, 1999
Source: People's Republic of China (PRC)
Launch site: Taiyaun Space Center, China (TSC)

Note: This is SATELLITE DEBRIS
aabbcc
Your satellite tracking list
Your tracking list is empty




NASA's NSSDC Master Catalog

Two Line Element Set (TLE):
1 30916U 99025AZE 18203.57206647 +.00000215 +00000-0 +16963-3 0  9991
2 30916 099.2522 212.1551 0078558 163.6147 323.5186 14.00876120579747
Source of the keplerian elements: AFSPC